Weather History for Louisa, VA

Change the Weather History Date:

Wednesday, January 30, 2013

  Actual Average (KCHO) Record (KCHO)
Temperature  
Mean Temperature 66 °F 36 °F  
Max Temperature 71 °F 46 °F 81 °F (2002)
Min Temperature 60 °F 26 °F 2 °F (1934)
Degree Days  
Heating Degree Days 0 29  
Month to date heating degree days 895  
Since 1 July heating degree days 2631  
Cooling Degree Days 0 0  
Month to date cooling degree days 0  
Year to date cooling degree days 0  
Growing Degree Days 16 (Base 50)    
Moisture  
Dew Point 59 °F    
Average Humidity 76    
Maximum Humidity 88    
Minimum Humidity 68    
Precipitation  
Precipitation 0.60 in 0.07 in 2.56 in (2013)
Month to date precipitation 2.69  
Year to date precipitation 2.69  
Sea Level Pressure  
Sea Level Pressure 29.68 in    
Wind  
Wind Speed 9 mph (South)    
Max Wind Speed 18 mph    
Max Gust Speed 32 mph    
Visibility 10 miles    
Events Rain    
T = Trace of Precipitation, MM = Missing Value Source: NWS Daily Summary

Daily Weather History Graph

Daily Weather History Graph

Search for Another Location

Airport:

Trip Planner

Search our weather history database for the weather conditions in past years. The results will help you decide how hot, cold, wet, or windy it might be!

Date:

Astronomy

Jan. 30, 2013 Rise Set
Actual Time 7:17 AM EST 5:33 PM EST
Civil Twilight 6:49 AM EST 6:00 PM EST
Nautical Twilight 6:18 AM EST 6:32 PM EST
Astronomical Twilight 5:47 AM EST 7:03 PM EST
Moon 9:24 PM EST (1/30) 8:49 AM EST (1/30)
Length of Visible Light 11h 10m
Length of Day
10h 15m
Waning Gibbous, 88% of the Moon is Illuminated
Jan 30
Waning Gibbous
Feb 3
Last Quarter
Feb 10
New
Feb 17
First Quarter
Feb 25
Full

Hourly Weather History & Observations

Time (EST) Temp. Dew Point Humidity Pressure Visibility Wind Dir Wind Speed Gust Speed Precip Events Conditions
12:15 AM 64.4 °F 53.6 °F 68% 29.98 in 10.0 mi South 6.9 mph - N/A   Mostly Cloudy
12:35 AM 64.4 °F 53.6 °F 68% 29.97 in 10.0 mi South 5.8 mph - N/A   Scattered Clouds
12:55 AM 62.6 °F 53.6 °F 72% 29.97 in 10.0 mi South 5.8 mph - N/A   Mostly Cloudy
1:15 AM 64.4 °F 53.6 °F 68% 29.96 in 10.0 mi South 6.9 mph - N/A   Overcast
1:35 AM 62.6 °F 53.6 °F 72% 29.95 in 10.0 mi South 8.1 mph - N/A   Scattered Clouds
1:55 AM 62.6 °F 53.6 °F 72% 29.94 in 10.0 mi South 8.1 mph - N/A   Clear
2:15 AM 62.6 °F 53.6 °F 72% 29.94 in 10.0 mi South 5.8 mph - N/A   Mostly Cloudy
2:35 AM 62.6 °F 53.6 °F 72% 29.92 in 10.0 mi SSW 5.8 mph - N/A   Mostly Cloudy
2:55 AM 62.6 °F 53.6 °F 72% 29.92 in 10.0 mi SSW 3.5 mph - N/A   Scattered Clouds
3:15 AM 60.8 °F 55.4 °F 82% 29.91 in 10.0 mi South 5.8 mph - N/A   Clear
3:35 AM 62.6 °F 55.4 °F 77% 29.90 in 10.0 mi SSW 5.8 mph - N/A   Clear
3:55 AM 62.6 °F 55.4 °F 77% 29.90 in 10.0 mi SSW 6.9 mph - N/A   Mostly Cloudy
4:15 AM 62.6 °F 55.4 °F 77% 29.90 in 10.0 mi SSW 4.6 mph - N/A   Overcast
4:35 AM 60.8 °F 55.4 °F 82% 29.89 in 10.0 mi South 4.6 mph - N/A   Mostly Cloudy
4:55 AM 62.6 °F 55.4 °F 77% 29.88 in 10.0 mi South 6.9 mph - N/A   Mostly Cloudy
5:15 AM 62.6 °F 55.4 °F 77% 29.87 in 10.0 mi South 9.2 mph 16.1 mph N/A   Overcast
5:35 AM 62.6 °F 57.2 °F 82% 29.85 in 10.0 mi South 9.2 mph 16.1 mph N/A   Overcast
5:55 AM 62.6 °F 57.2 °F 82% 29.85 in 10.0 mi SSW 5.8 mph 17.3 mph N/A   Overcast
6:15 AM 62.6 °F 57.2 °F 82% 29.84 in 10.0 mi SSW 10.4 mph 16.1 mph N/A   Overcast
6:35 AM 64.4 °F 57.2 °F 77% 29.85 in 10.0 mi SSW 12.7 mph 21.9 mph N/A   Overcast
7:15 AM 64.4 °F 57.2 °F 77% 29.84 in 10.0 mi SSW 6.9 mph - N/A   Overcast
7:35 AM 64.4 °F 57.2 °F 77% 29.85 in 10.0 mi South 6.9 mph - N/A   Overcast
7:55 AM 64.4 °F 57.2 °F 77% 29.83 in 10.0 mi South 9.2 mph - N/A   Overcast
8:15 AM 64.4 °F 57.2 °F 77% 29.83 in 10.0 mi South 8.1 mph - N/A   Overcast
8:35 AM 64.4 °F 59.0 °F 83% 29.83 in 10.0 mi South 9.2 mph - N/A   Overcast
8:55 AM 66.2 °F 59.0 °F 78% 29.81 in 10.0 mi South 10.4 mph 17.3 mph N/A   Overcast
9:15 AM 66.2 °F 59.0 °F 78% 29.80 in 10.0 mi South 12.7 mph 21.9 mph N/A   Overcast
9:35 AM 66.2 °F 59.0 °F 78% 29.80 in 10.0 mi SSW 11.5 mph 19.6 mph N/A   Overcast
9:55 AM 66.2 °F 59.0 °F 78% 29.79 in 10.0 mi South 9.2 mph 16.1 mph N/A   Overcast
10:15 AM 66.2 °F 59.0 °F 78% 29.78 in 10.0 mi South 10.4 mph 17.3 mph N/A   Overcast
10:35 AM 66.2 °F 59.0 °F 78% 29.78 in 10.0 mi South 10.4 mph 16.1 mph N/A   Overcast
10:55 AM 68.0 °F 59.0 °F 73% 29.77 in 10.0 mi South 9.2 mph 17.3 mph N/A   Overcast
11:15 AM 69.8 °F 60.8 °F 73% 29.75 in 10.0 mi South 10.4 mph 20.7 mph N/A   Overcast
11:35 AM 69.8 °F 60.8 °F 73% 29.74 in 10.0 mi South 11.5 mph 24.2 mph N/A   Overcast
11:55 AM 71.6 °F 60.8 °F 69% 29.72 in 10.0 mi South 8.1 mph 26.5 mph N/A   Overcast
12:15 PM 71.6 °F 60.8 °F 69% 29.70 in 10.0 mi South 10.4 mph 24.2 mph N/A   Overcast
12:35 PM 71.6 °F 60.8 °F 69% 29.68 in 10.0 mi South 15.0 mph 32.2 mph N/A   Overcast
12:55 PM 71.6 °F 60.8 °F 69% 29.67 in 10.0 mi South 15.0 mph 31.1 mph N/A   Overcast
1:15 PM 71.6 °F 60.8 °F 69% 29.66 in 10.0 mi SSW 15.0 mph 25.3 mph N/A   Overcast
1:35 PM 71.6 °F 60.8 °F 69% 29.66 in 10.0 mi South 16.1 mph 26.5 mph N/A   Overcast
1:55 PM 71.6 °F 60.8 °F 69% 29.64 in 10.0 mi South 13.8 mph 25.3 mph N/A   Overcast
2:15 PM 71.6 °F 60.8 °F 69% 29.64 in 10.0 mi South 18.4 mph 26.5 mph N/A   Overcast
2:35 PM 69.8 °F 60.8 °F 73% 29.63 in 10.0 mi SSW 15.0 mph 26.5 mph N/A   Overcast
2:55 PM 69.8 °F 60.8 °F 73% 29.62 in 10.0 mi South 11.5 mph 24.2 mph N/A   Overcast
3:15 PM 69.8 °F 60.8 °F 73% 29.62 in 10.0 mi South 9.2 mph 26.5 mph N/A   Drizzle
3:35 PM 69.8 °F 60.8 °F 73% 29.61 in 7.0 mi South 10.4 mph 19.6 mph N/A Rain Rain
3:55 PM 68.0 °F 62.6 °F 83% 29.61 in 7.0 mi South 11.5 mph 19.6 mph 0.01 in Rain Light Rain
4:15 PM 66.2 °F 62.6 °F 88% 29.59 in 7.0 mi South 10.4 mph 20.7 mph 0.01 in Rain Light Rain
4:35 PM 68.0 °F 60.8 °F 78% 29.59 in 10.0 mi South 11.5 mph 23.0 mph 0.02 in   Overcast
4:55 PM 69.8 °F 60.8 °F 73% 29.58 in 10.0 mi South 13.8 mph 26.5 mph 0.02 in   Overcast
5:15 PM 69.8 °F 60.8 °F 73% 29.56 in 10.0 mi South 8.1 mph 23.0 mph N/A   Overcast
5:35 PM 69.8 °F 60.8 °F 73% 29.54 in 10.0 mi SSE 12.7 mph 21.9 mph N/A   Mostly Cloudy
5:55 PM 69.8 °F 60.8 °F 73% 29.51 in 10.0 mi South 16.1 mph 29.9 mph N/A   Mostly Cloudy
6:15 PM 69.8 °F 60.8 °F 73% 29.50 in 10.0 mi South 18.4 mph 29.9 mph N/A   Mostly Cloudy
6:35 PM 69.8 °F 60.8 °F 73% 29.50 in 10.0 mi South 13.8 mph 24.2 mph N/A   Mostly Cloudy
6:55 PM 69.8 °F 60.8 °F 73% 29.49 in 10.0 mi South 13.8 mph 23.0 mph N/A   Mostly Cloudy
7:15 PM 69.8 °F 60.8 °F 73% 29.48 in 10.0 mi South 13.8 mph 28.8 mph N/A   Mostly Cloudy
7:35 PM 69.8 °F 60.8 °F 73% 29.49 in 10.0 mi South 9.2 mph 19.6 mph N/A   Mostly Cloudy
7:55 PM 64.4 °F 55.4 °F 73% 29.48 in 10.0 mi WNW 3.5 mph 17.3 mph N/A   Overcast
8:15 PM 62.6 °F 55.4 °F 77% 29.48 in 10.0 mi West 11.5 mph - 0.01 in   Overcast
8:35 PM 64.4 °F 57.2 °F 77% 29.45 in 10.0 mi WNW 9.2 mph - 0.01 in   Overcast
8:55 PM 60.8 °F 55.4 °F 82% 29.42 in 10.0 mi Calm Calm - 0.02 in Rain Light Rain
9:15 PM 66.2 °F 60.8 °F 83% 29.39 in 10.0 mi South 12.7 mph 20.7 mph 0.03 in Rain Rain
9:35 PM 66.2 °F 60.8 °F 83% 29.37 in 10.0 mi SSE 12.7 mph 20.7 mph 0.08 in Rain Light Rain
9:55 PM 66.2 °F 60.8 °F 83% 29.35 in 10.0 mi South 10.4 mph 19.6 mph 0.11 in Rain Rain
10:15 PM 66.2 °F 60.8 °F 83% 29.32 in 10.0 mi South 11.5 mph 20.7 mph 0.02 in Rain Light Rain
10:35 PM 64.4 °F 60.8 °F 88% 29.30 in 10.0 mi SSE 11.5 mph 21.9 mph 0.05 in Rain Rain
10:55 PM 66.2 °F 60.8 °F 83% 29.29 in 10.0 mi South 16.1 mph 25.3 mph 0.11 in Rain Light Rain
11:15 PM 64.4 °F 60.8 °F 88% 29.29 in 10.0 mi South 9.2 mph 23.0 mph 0.10 in Rain Heavy Rain
11:35 PM 64.4 °F 60.8 °F 88% 29.27 in 10.0 mi South 10.4 mph 29.9 mph 0.27 in Rain Light Rain
11:55 PM 64.4 °F 60.8 °F 88% 29.25 in 7.0 mi South 12.7 mph 19.6 mph 0.33 in Rain Rain